Weather History for Fargo, ND

Change the Weather History Date:

Wednesday, April 3, 2013

  Actual Average Record
Temperature  
Mean Temperature 31 °F 38 °F  
Max Temperature 43 °F 48 °F 79 °F (1910)
Min Temperature 19 °F 27 °F -1 °F (1975)
Degree Days  
Heating Degree Days 34 28  
Month to date heating degree days 121 85  
Since 1 July heating degree days 8182 7915  
Cooling Degree Days 0 0  
Month to date cooling degree days 0 0  
Year to date cooling degree days 0 0  
Moisture  
Dew Point 23 °F    
Average Humidity 74    
Maximum Humidity 84    
Minimum Humidity 63    
Precipitation  
Precipitation 0.00 in 0.04 in 1.69 in (1963)
Month to date precipitation 0.00 0.12  
Year to date precipitation 3.63 2.73  
Snow  
Snow 0.00 in 0.20 in 7.40 in (1946)
Month to date snowfall 0.0 0.5  
Since 1 July snowfall 51.7 47.6  
Snow Depth 10.00 in    
Sea Level Pressure  
Sea Level Pressure 30.14 in    
Wind  
Wind Speed 16 mph (SSE)    
Max Wind Speed 32 mph    
Max Gust Speed 40 mph    
Visibility 9 miles    
Events      
T = Trace of Precipitation, MM = Missing Value Source: NWS Daily Summary

Daily Weather History Graph

Daily Weather History Graph

Search for Another Location

Airport:

Trip Planner

Search our weather history database for the weather conditions in past years. The results will help you decide how hot, cold, wet, or windy it might be!

Date:

Astronomy

Apr. 03, 2013 Rise Set
Actual Time 7:01 AM CDT 7:59 PM CDT
Civil Twilight 6:31 AM CDT 8:30 PM CDT
Nautical Twilight 5:54 AM CDT 9:07 PM CDT
Astronomical Twilight 5:15 AM CDT 9:46 PM CDT
Moon 3:08 AM CDT (4/3) 12:49 PM CDT (4/3)
Length of Visible Light 13h 59m
Length of Day
12h 57m
Last Quarter, 44% of the Moon is Illuminated
Apr 3
Last Quarter
Apr 10
New
Apr 18
First Quarter
Apr 25
Full
May 2
Last Quarter

Hourly Weather History & Observations

Time (CDT) Temp. Windchill Dew Point Humidity Pressure Visibility Wind Dir Wind Speed Gust Speed Precip Events Conditions
12:53 AM 19.9 °F 14.9 °F 15.1 °F 81% 30.37 in 10.0 mi SE 3.5 mph - N/A   Clear
1:53 AM 19.9 °F 12.1 °F 15.1 °F 81% 30.36 in 10.0 mi SE 5.8 mph - N/A   Clear
2:53 AM 19.9 °F 11.1 °F 14.0 °F 78% 30.33 in 10.0 mi SE 6.9 mph - N/A   Clear
3:53 AM 21.9 °F 10.4 °F 14.0 °F 72% 30.31 in 10.0 mi SSE 11.5 mph - N/A   Clear
4:53 AM 23.0 °F 11.1 °F 12.9 °F 65% 30.30 in 10.0 mi SSE 12.7 mph - N/A   Clear
5:53 AM 21.9 °F 9.8 °F 12.9 °F 68% 30.29 in 10.0 mi SSE 12.7 mph - N/A   Clear
6:53 AM 21.9 °F 8.2 °F 12.0 °F 66% 30.28 in 10.0 mi SSE 16.1 mph - N/A   Clear
7:53 AM 23.0 °F 9.2 °F 12.9 °F 65% 30.26 in 10.0 mi SSE 17.3 mph 24.2 mph N/A   Clear
8:53 AM 26.1 °F 12.7 °F 16.0 °F 66% 30.25 in 10.0 mi SSE 18.4 mph 26.5 mph N/A   Clear
9:53 AM 28.9 °F 15.1 °F 18.0 °F 64% 30.20 in 10.0 mi SSE 23.0 mph 34.5 mph N/A   Clear
10:53 AM 32.0 °F 19.2 °F 21.0 °F 64% 30.17 in 10.0 mi SSE 23.0 mph 36.8 mph N/A   Clear
11:53 AM 34.0 °F 21.3 °F 24.1 °F 67% 30.14 in 10.0 mi South 25.3 mph 33.4 mph N/A   Clear
12:53 PM 36.0 °F 24.2 °F 27.0 °F 70% 30.09 in 10.0 mi SSE 24.2 mph 38.0 mph N/A   Clear
1:53 PM 37.0 °F 24.7 °F 27.0 °F 67% 30.07 in 10.0 mi SSE 28.8 mph 38.0 mph 0.00 in   Clear
2:53 PM 37.9 °F 25.9 °F 28.0 °F 68% 30.04 in 10.0 mi SSE 28.8 mph 35.7 mph N/A   Clear
3:53 PM 39.0 °F 27.6 °F 30.0 °F 70% 30.00 in 10.0 mi SSE 27.6 mph 38.0 mph N/A   Clear
4:53 PM 39.9 °F 30.0 °F 30.9 °F 70% 29.98 in 10.0 mi SSE 21.9 mph 32.2 mph N/A   Partly Cloudy
5:53 PM 41.0 °F 33.1 °F 32.0 °F 70% 29.95 in 8.0 mi SSE 15.0 mph 25.3 mph N/A   Mostly Cloudy
6:53 PM 41.0 °F 35.2 °F 33.1 °F 73% 29.95 in 8.0 mi South 9.2 mph - N/A   Overcast
7:53 PM 42.1 °F - 33.1 °F 70% 29.96 in 7.0 mi Calm Calm - N/A   Mostly Cloudy
8:53 PM 37.0 °F 34.5 °F 32.0 °F 82% 29.97 in 7.0 mi NNW 3.5 mph - N/A   Clear
9:53 PM 35.1 °F 27.4 °F 30.9 °F 85% 30.01 in 5.0 mi NNW 10.4 mph - N/A   Mostly Cloudy
10:53 PM 36.0 °F 27.1 °F 30.9 °F 82% 30.01 in 7.0 mi NNW 13.8 mph - N/A   Clear
11:53 PM 36.0 °F 26.7 °F 27.0 °F 70% 30.04 in 10.0 mi NNW 15.0 mph - N/A   Clear